K7SFN Weather Reports


time (UTC)temp
C
wind
direction
speed
KPH
gust
KPH
rain 1hr
cm
rain 24hr
cm
rain mn
cm
humidity
%
barometer
mb
20260502212004 20 283 3.2 12.9 0.00 0.00 0.00 30 1015.6
20260502211504 20 291 8.0 19.3 0.00 0.00 0.00 29 1015.6
20260502211004 20 288 3.2 9.7 0.00 0.00 0.00 28 1015.6
20260502210505 20 275 3.2 11.3 0.00 0.00 0.00 28 1015.7
20260502210004 20 225 1.6 8.0 0.00 0.00 0.00 30 1015.7
20260502205504 20 248 0.0 1.6 0.00 0.00 0.00 28 1015.6
20260502204504 20 315 3.2 4.8 0.00 0.00 0.00 27 1015.7
20260502204005 21 192 4.8 14.5 0.00 0.00 0.00 26 1015.6
20260502203004 21 215 0.0 1.6 0.00 0.00 0.00 27 1015.7
20260502202504 20 198 1.6 4.8 0.00 0.00 0.00 28 1015.8
20260502202004 20 281 1.6 8.0 0.00 0.00 0.00 27 1015.8
20260502201504 20 303 1.6 8.0 0.00 0.00 0.00 27 1015.8
20260502201005 20 287 0.0 0.0 0.00 0.00 0.00 28 1015.8
20260502200505 21 287 3.2 9.7 0.00 0.00 0.00 27 1015.9
20260502200005 21 295 0.0 9.7 0.00 0.00 0.00 27 1015.8
20260502195504 21 309 1.6 9.7 0.00 0.00 0.00 26 1016.0
20260502194504 21 171 8.0 16.1 0.00 0.00 0.00 25 1016.1
20260502194004 21 183 6.4 14.5 0.00 0.00 0.00 26 1016.1
20260502193503 21 203 1.6 8.0 0.00 0.00 0.00 26 1016.1
20260502193005 21 202 6.4 11.3 0.00 0.00 0.00 26 1016.1
20260502192505 21 262 1.6 12.9 0.00 0.00 0.00 26 1016.1
20260502192004 21 178 8.0 14.5 0.00 0.00 0.00 25 1016.2
20260502191505 21 216 3.2 12.9 0.00 0.00 0.00 26 1016.2
20260502191004 21 221 8.0 14.5 0.00 0.00 0.00 25 1016.2
20260502190505 21 174 11.3 14.5 0.00 0.00 0.00 24 1016.2
20260502190004 21 204 9.7 14.5 0.00 0.00 0.00 24 1016.3
20260502185504 21 183 11.3 20.9 0.00 0.00 0.00 25 1016.3
20260502185004 21 222 8.0 16.1 0.00 0.00 0.00 25 1016.3
20260502184504 21 185 11.3 16.1 0.00 0.00 0.00 25 1016.3
20260502184004 21 237 6.4 20.9 0.00 0.00 0.00 26 1016.4
20260502182004 20 206 11.3 25.7 0.00 0.00 0.00 29 1016.7
20260502181504 20 220 9.7 19.3 0.00 0.00 0.00 28 1016.7
20260502180504 20 242 8.0 14.5 0.00 0.00 0.00 29 1016.8
20260502164004 17 246 0.0 0.0 0.00 0.00 0.00 42 1016.9
20260502163504 17 246 0.0 0.0 0.00 0.00 0.00 43 1016.9
20260502163004 17 246 0.0 4.8 0.00 0.00 0.00 43 1016.9
20260502162504 17 328 0.0 0.0 0.00 0.00 0.00 44 1016.8
20260502162004 17 328 1.6 8.0 0.00 0.00 0.00 45 1016.8
20260502161504 17 154 0.0 0.0 0.00 0.00 0.00 43 1016.8
20260502161005 17 154 0.0 0.0 0.00 0.00 0.00 43 1016.8
20260502151504 13 154 0.0 0.0 0.00 0.00 0.00 48 1016.9
20260502151005 12 154 0.0 0.0 0.00 0.00 0.00 50 1017.0
20260502150505 12 154 0.0 0.0 0.00 0.00 0.00 52 1016.9
20260502130504 7 154 0.0 0.0 0.00 0.00 0.00 58 1016.2
20260502123004 6 154 0.0 0.0 0.00 0.00 0.00 57 1016.1
20260502122504 7 154 0.0 0.0 0.00 0.00 0.00 56 1016.0
20260502122004 7 154 0.0 0.0 0.00 0.00 0.00 55 1016.0
20260502121504 7 154 0.0 0.0 0.00 0.00 0.00 55 1016.0
20260502121005 7 154 0.0 0.0 0.00 0.00 0.00 55 1016.0
20260502120504 7 154 0.0 0.0 0.00 0.00 0.00 54 1016.1
20260502115505 7 154 0.0 0.0 0.00 0.00 0.00 54 1016.0
20260502115004 7 154 0.0 0.0 0.00 0.00 0.00 53 1016.0
20260502114505 7 154 0.0 0.0 0.00 0.00 0.00 52 1016.0
20260502114004 7 154 0.0 0.0 0.00 0.00 0.00 51 1016.1
20260502113504 7 154 0.0 0.0 0.00 0.00 0.00 51 1016.1
20260502113004 7 154 0.0 0.0 0.00 0.00 0.00 51 1016.1
20260502112504 7 154 0.0 0.0 0.00 0.00 0.00 50 1016.1
20260502112004 7 154 0.0 0.0 0.00 0.00 0.00 49 1016.1
20260502111504 7 154 0.0 0.0 0.00 0.00 0.00 48 1016.1
20260502111004 7 154 0.0 0.0 0.00 0.00 0.00 47 1016.1
20260502105504 8 154 0.0 0.0 0.00 0.00 0.00 45 1016.1
20260502105004 8 154 0.0 0.0 0.00 0.00 0.00 44 1016.1
20260502104504 8 154 0.0 0.0 0.00 0.00 0.00 44 1016.1
20260502104004 8 154 0.0 0.0 0.00 0.00 0.00 44 1016.1
20260502103505 7 154 0.0 0.0 0.00 0.00 0.00 45 1016.1
20260502103004 8 154 0.0 0.0 0.00 0.00 0.00 46 1016.1
20260502102505 8 154 0.0 0.0 0.00 0.00 0.00 44 1016.0
20260502102004 8 154 0.0 0.0 0.00 0.00 0.00 44 1016.0
20260502101004 8 154 0.0 0.0 0.00 0.00 0.00 44 1016.0
20260502100505 8 154 0.0 0.0 0.00 0.00 0.00 44 1015.8
20260502091504 8 154 0.0 0.0 0.00 0.00 0.00 44 1016.2
20260502091004 8 154 0.0 0.0 0.00 0.00 0.00 43 1016.3
20260502071504 10 154 0.0 0.0 0.00 0.00 0.00 39 1017.1
20260502071004 11 154 0.0 0.0 0.00 0.00 0.00 38 1017.1
20260502070504 11 154 0.0 0.0 0.00 0.00 0.00 37 1017.0
20260502070004 11 154 0.0 0.0 0.00 0.00 0.00 36 1017.0
20260502065504 11 154 0.0 0.0 0.00 0.00 0.00 35 1017.0
20260502065004 12 154 0.0 0.0 0.00 0.00 0.00 35 1017.0
20260502064505 12 154 0.0 0.0 0.00 0.00 0.00 35 1017.0
20260502064004 12 154 0.0 0.0 0.00 0.00 0.00 34 1017.0
20260502063505 12 154 0.0 0.0 0.00 0.00 0.00 34 1016.9
20260502063005 12 154 0.0 0.0 0.00 0.00 0.00 34 1016.9
20260502062504 12 154 0.0 3.2 0.00 0.00 0.00 34 1017.0
20260502062004 12 37 0.0 0.0 0.00 0.00 0.00 34 1016.8
20260502061504 12 37 0.0 0.0 0.00 0.00 0.00 34 1016.9
20260502061005 12 37 0.0 0.0 0.00 0.00 0.00 34 1016.9
20260502060504 12 37 0.0 0.0 0.00 0.00 0.00 33 1016.9
20260502060004 13 37 0.0 0.0 0.00 0.00 0.00 34 1017.0
20260502055504 13 37 0.0 0.0 0.00 0.00 0.00 34 1017.0
20260502055004 13 37 0.0 0.0 0.00 0.00 0.00 34 1017.0
20260502054005 13 37 0.0 0.0 0.00 0.00 0.00 35 1017.0
20260502053505 13 37 0.0 0.0 0.00 0.00 0.00 35 1017.0
20260502053005 13 37 0.0 0.0 0.00 0.00 0.00 34 1017.0
20260502052004 14 37 0.0 0.0 0.00 0.00 0.00 33 1017.0
20260502051504 15 37 0.0 1.6 0.00 0.00 0.00 32 1016.9
20260502051005 15 312 0.0 0.0 0.00 0.00 0.00 30 1016.9
20260502050504 15 312 0.0 0.0 0.00 0.00 0.00 30 1016.9
20260502050005 15 307 1.6 4.8 0.00 0.00 0.00 32 1017.0
20260502045504 15 282 0.0 0.0 0.00 0.00 0.00 33 1016.9
20260502045004 16 282 0.0 0.0 0.00 0.00 0.00 34 1017.0
20260502044504 16 282 0.0 1.6 0.00 0.00 0.00 31 1016.9
20260502043505 16 299 0.0 0.0 0.00 0.00 0.00 28 1016.8
20260502043004 16 299 0.0 0.0 0.00 0.00 0.00 30 1016.7
20260502042504 16 299 0.0 11.3 0.00 0.00 0.00 30 1016.6
20260502042005 16 316 1.6 3.2 0.00 0.00 0.00 32 1016.7
20260502041505 16 176 0.0 0.0 0.00 0.00 0.00 31 1016.7
20260502041005 16 176 0.0 0.0 0.00 0.00 0.00 31 1016.7
20260502040505 16 176 0.0 0.0 0.00 0.00 0.00 32 1016.6
20260502040004 16 176 0.0 0.0 0.00 0.00 0.00 31 1016.6
20260502035505 17 176 0.0 0.0 0.00 0.00 0.00 31 1016.4
20260502035004 17 176 0.0 0.0 0.00 0.00 0.00 25 1016.3
20260502034504 17 176 0.0 0.0 0.00 0.00 0.00 21 1016.2
20260502034005 17 176 0.0 0.0 0.00 0.00 0.00 22 1016.1
20260502033504 18 176 0.0 0.0 0.00 0.00 0.00 17 1016.0
20260502033004 18 176 0.0 4.8 0.00 0.00 0.00 16 1015.9
20260502032005 18 167 1.6 8.0 0.00 0.00 0.00 16 1015.7
20260502031504 18 143 0.0 0.0 0.00 0.00 0.00 18 1015.6
20260502031004 18 143 1.6 11.3 0.00 0.00 0.00 16 1015.6
20260502030504 18 200 8.0 12.9 0.00 0.00 0.00 16 1015.6
20260502025504 18 155 3.2 16.1 0.00 0.00 0.00 16 1015.5
20260502025004 19 166 8.0 12.9 0.00 0.00 0.00 15 1015.5
20260502023504 20 150 1.6 9.7 0.00 0.00 0.00 15 1015.5
20260502023004 20 166 6.4 14.5 0.00 0.00 0.00 15 1015.5
20260502022505 20 142 3.2 8.0 0.00 0.00 0.00 15 1015.4
20260502022004 20 62 0.0 0.0 0.00 0.00 0.00 16 1015.4
20260502020504 20 62 0.0 0.0 0.00 0.00 0.00 15 1015.4
20260502020004 20 62 0.0 0.0 0.00 0.00 0.00 14 1015.5
20260502015504 21 62 0.0 0.0 0.00 0.00 0.00 14 1015.4
20260502015004 21 64 3.2 9.7 0.00 0.00 0.00 15 1015.5
20260502014504 21 195 0.0 0.0 0.00 0.00 0.00 14 1015.5
20260502014004 20 195 0.0 0.0 0.00 0.00 0.00 16 1015.6
20260502013004 21 195 0.0 0.0 0.00 0.00 0.00 17 1015.5
20260502012505 21 195 0.0 0.0 0.00 0.00 0.00 18 1015.6
20260502011504 21 195 0.0 0.0 0.00 0.00 0.00 17 1015.5
20260502011005 21 195 0.0 0.0 0.00 0.00 0.00 14 1015.6
20260502010504 21 195 0.0 0.0 0.00 0.00 0.00 14 1015.6
20260502010004 21 195 0.0 0.0 0.00 0.00 0.00 13 1015.6
20260502005504 21 195 0.0 0.0 0.00 0.00 0.00 13 1015.6
20260502005004 21 195 1.6 4.8 0.00 0.00 0.00 14 1015.6
20260502004505 21 278 0.0 1.6 0.00 0.00 0.00 13 1015.7
20260502004004 22 267 0.0 0.0 0.00 0.00 0.00 14 1015.7
20260502003505 22 260 1.6 3.2 0.00 0.00 0.00 13 1015.8
20260502002504 22 208 1.6 8.0 0.00 0.00 0.00 13 1015.8
20260502001504 22 322 0.0 0.0 0.00 0.00 0.00 13 1015.8
20260502001005 22 322 0.0 1.6 0.00 0.00 0.00 13 1015.8
20260502000004 22 299 1.6 8.0 0.00 0.00 0.00 13 1016.1
20260501235504 22 328 0.0 0.0 0.00 0.00 0.00 13 1016.1
20260501235004 22 328 0.0 0.0 0.00 0.00 0.00 13 1016.1
20260501234504 22 321 4.8 9.7 0.00 0.00 0.00 12 1016.2
20260501234004 22 240 0.0 0.0 0.00 0.00 0.00 13 1016.2
20260501233505 22 240 1.6 4.8 0.00 0.00 0.00 14 1016.3
20260501233005 22 274 1.6 9.7 0.00 0.00 0.00 13 1016.3
20260501232504 22 281 0.0 9.7 0.00 0.00 0.00 13 1016.4
20260501232004 22 308 4.8 9.7 0.00 0.00 0.00 13 1016.4
20260501230504 22 322 8.0 12.9 0.00 0.00 0.00 14 1016.6
20260501230004 22 307 6.4 12.9 0.00 0.00 0.00 15 1016.7
20260501225504 22 299 1.6 14.5 0.00 0.00 0.00 15 1016.8
20260501225004 22 236 4.8 11.3 0.00 0.00 0.00 14 1016.9
20260501224505 22 307 4.8 12.9 0.00 0.00 0.00 15 1016.9
20260501224004 22 323 6.4 14.5 0.00 0.00 0.00 15 1017.0
20260501223504 22 306 8.0 14.5 0.00 0.00 0.00 14 1017.2
20260501223004 22 309 4.8 14.5 0.00 0.00 0.00 14 1017.4
20260501221504 22 175 1.6 8.0 0.00 0.00 0.00 14 1017.6
20260501221004 22 309 3.2 11.3 0.00 0.00 0.00 14 1017.8
20260501220505 22 335 4.8 12.9 0.00 0.00 0.00 14 1017.9
20260501220004 22 279 1.6 11.3 0.00 0.00 0.00 14 1018.0
20260501215504 22 333 4.8 11.3 0.00 0.00 0.00 14 1018.1
20260501215004 22 272 4.8 9.7 0.00 0.00 0.00 14 1018.1
20260501214504 22 336 3.2 9.7 0.00 0.00 0.00 15 1018.2
20260501214004 22 304 4.8 11.3 0.00 0.00 0.00 14 1018.2
20260501213504 22 318 4.8 12.9 0.00 0.00 0.00 15 1018.2
20260501213004 22 308 6.4 9.7 0.00 0.00 0.00 14 1018.4
20260501212504 22 292 4.8 11.3 0.00 0.00 0.00 15 1018.5